| time (UTC) | temp C | wind direction | speed KPH | gust KPH | rain 1hr cm | rain 24hr cm | rain mn cm | humidity % | barometer mb |
| 20260504081519 | 7 | 255 | 0.0 | 0.0 | 0.00 | 0.00 | 0.00 | 87 | 1017.4 |
| 20260504044552 | 4 | 255 | 0.0 | 0.0 | 0.00 | 0.00 | 0.00 | 87 | 1017.7 |
| 20260504043019 | 4 | 255 | 0.0 | 0.0 | 0.00 | 0.00 | 0.00 | 85 | 1017.7 |
| 20260504041542 | 5 | 255 | 0.0 | 0.0 | 0.00 | 0.00 | 0.00 | 85 | 1017.7 |
| 20260504040008 | 5 | 255 | 0.0 | 0.0 | 0.00 | 0.00 | 0.00 | 84 | 1017.8 |
| 20260504034543 | 5 | 255 | 0.0 | 0.0 | 0.00 | 0.00 | 0.00 | 83 | 1017.8 |
| 20260504033005 | 5 | 255 | 0.0 | 0.0 | 0.00 | 0.00 | 0.00 | 82 | 1017.5 |
| 20260504031541 | 5 | 255 | 0.0 | 0.0 | 0.00 | 0.00 | 0.00 | 81 | 1017.3 |
| 20260504024529 | 6 | 255 | 0.0 | 0.0 | 0.00 | 0.00 | 0.00 | 78 | 1017.1 |
| 20260504023052 | 6 | 255 | 0.0 | 0.0 | 0.00 | 0.00 | 0.00 | 76 | 1017.0 |
| 20260504021519 | 7 | 255 | 0.0 | 0.0 | 0.00 | 0.00 | 0.00 | 74 | 1017.1 |
| 20260504020058 | 7 | 255 | 0.0 | 0.0 | 0.00 | 0.00 | 0.00 | 72 | 1017.1 |
| 20260504014519 | 8 | 255 | 0.0 | 0.0 | 0.00 | 0.00 | 0.00 | 69 | 1016.9 |
| 20260504013043 | 8 | 255 | 0.0 | 0.0 | 0.00 | 0.00 | 0.00 | 67 | 1016.9 |
| 20260504011504 | 9 | 255 | 0.0 | 0.0 | 0.00 | 0.00 | 0.00 | 62 | 1016.6 |
| 20260504010031 | 10 | 255 | 0.0 | 0.0 | 0.00 | 0.00 | 0.00 | 58 | 1016.6 |
| 20260504004503 | 11 | 255 | 0.0 | 0.0 | 0.00 | 0.00 | 0.00 | 53 | 1016.6 |
| 20260504003033 | 12 | 255 | 0.0 | 0.0 | 0.00 | 0.00 | 0.00 | 50 | 1016.4 |
| 20260504001602 | 13 | 255 | 0.0 | 0.0 | 0.00 | 0.00 | 0.00 | 45 | 1016.3 |
| 20260504000027 | 14 | 255 | 0.0 | 1.6 | 0.00 | 0.00 | 0.00 | 40 | 1016.2 |
| 20260503234624 | 15 | 252 | 0.0 | 0.0 | 0.00 | 0.00 | 0.00 | 37 | 1016.1 |
| 20260503233030 | 16 | 274 | 0.0 | 4.8 | 0.00 | 0.00 | 0.00 | 35 | 1016.0 |
| 20260503231549 | 17 | 264 | 0.0 | 4.8 | 0.00 | 0.00 | 0.00 | 34 | 1015.9 |
| 20260503230012 | 17 | 351 | 0.0 | 8.0 | 0.00 | 0.00 | 0.00 | 32 | 1015.8 |
| 20260503224538 | 17 | 264 | 1.6 | 8.0 | 0.00 | 0.00 | 0.00 | 32 | 1015.9 |
| 20260503223005 | 17 | 240 | 1.6 | 14.5 | 0.00 | 0.00 | 0.00 | 31 | 1015.9 |
| 20260503221536 | 17 | 1 | 1.6 | 16.1 | 0.00 | 0.00 | 0.00 | 33 | 1015.9 |
| 20260503214525 | 16 | 34 | 4.8 | 17.7 | 0.00 | 0.00 | 0.00 | 32 | 1016.1 |
| 20260503213052 | 17 | 267 | 1.6 | 17.7 | 0.00 | 0.00 | 0.00 | 32 | 1016.1 |
| 20260503211514 | 16 | 313 | 4.8 | 17.7 | 0.00 | 0.00 | 0.00 | 33 | 1015.8 |
| 20260503210040 | 17 | 269 | 3.2 | 11.3 | 0.00 | 0.00 | 0.00 | 33 | 1016.0 |
| 20260503204504 | 16 | 291 | 6.4 | 14.5 | 0.00 | 0.00 | 0.00 | 33 | 1016.2 |
| 20260503203026 | 15 | 245 | 3.2 | 22.5 | 0.00 | 0.00 | 0.00 | 34 | 1016.2 |
| 20260503201556 | 16 | 242 | 4.8 | 19.3 | 0.00 | 0.00 | 0.00 | 34 | 1016.4 |
| 20260503200021 | 16 | 290 | 4.8 | 14.5 | 0.00 | 0.00 | 0.00 | 35 | 1016.6 |
| 20260503194556 | 15 | 286 | 4.8 | 14.5 | 0.00 | 0.00 | 0.00 | 38 | 1016.7 |
| 20260503193014 | 15 | 308 | 1.6 | 16.1 | 0.00 | 0.00 | 0.00 | 39 | 1017.0 |
| 20260503191547 | 15 | 307 | 6.4 | 19.3 | 0.00 | 0.00 | 0.00 | 38 | 1017.1 |
| 20260503190006 | 15 | 297 | 8.0 | 20.9 | 0.00 | 0.00 | 0.00 | 38 | 1017.4 |
| 20260503184535 | 15 | 11 | 4.8 | 16.1 | 0.00 | 0.00 | 0.00 | 39 | 1017.4 |
| 20260503183001 | 14 | 248 | 11.3 | 25.7 | 0.00 | 0.00 | 0.00 | 38 | 1017.6 |
| 20260503181533 | 14 | 323 | 4.8 | 19.3 | 0.00 | 0.00 | 0.00 | 39 | 1017.8 |
| 20260503180107 | 13 | 288 | 9.7 | 24.1 | 0.00 | 0.00 | 0.00 | 39 | 1017.8 |
| 20260503174524 | 14 | 353 | 3.2 | 9.7 | 0.00 | 0.00 | 0.00 | 40 | 1017.9 |
| 20260503173046 | 12 | 328 | 8.0 | 20.9 | 0.00 | 0.00 | 0.00 | 41 | 1018.0 |
| 20260503171510 | 13 | 260 | 3.2 | 11.3 | 0.00 | 0.00 | 0.00 | 41 | 1018.2 |